Weather History for KUGN - November, 2012

Change the Weather History Date:

Thursday, November 22, 2012

  Actual Average Record
Temperature  
Mean Temperature 52 °F -  
Max Temperature 63 °F 43 °F 67 °F (2010)
Min Temperature 41 °F 28 °F 14 °F (2008)
Degree Days  
Heating Degree Days 13 29  
Month to date heating degree days 529 528  
Since 1 July heating degree days 1180 1134  
Cooling Degree Days 0 0  
Month to date cooling degree days 0 0  
Year to date cooling degree days 983 564  
Growing Degree Days 4 (Base 50)    
Moisture  
Dew Point 44 °F    
Average Humidity 71    
Maximum Humidity 93    
Minimum Humidity 48    
Precipitation  
Precipitation 0.02 in 0.07 in 0.15 in (2011)
Month to date precipitation 0.41 2.10  
Year to date precipitation 23.41 32.93  
Sea Level Pressure  
Sea Level Pressure 29.86 in    
Wind  
Wind Speed 18 mph (SSW)    
Max Wind Speed 33 mph    
Max Gust Speed 41 mph    
Visibility 8 miles    
Events      
T = Trace of Precipitation, MM = Missing Value Source: NWS Daily Summary

Daily Weather History Graph

Daily Weather History Graph

Search for Another Location

Airport or City:

Trip Planner

Search our weather history database for the weather conditions in past years. The results will help you decide how hot, cold, wet, or windy it might be!

Date:

Astronomy

Nov. 22, 2012 Rise Set
Actual Time 6:51 AM CST 4:23 PM CST
Civil Twilight 6:20 AM CST 4:54 PM CST
Nautical Twilight 5:46 AM CST 5:28 PM CST
Astronomical Twilight 5:12 AM CST 6:02 PM CST
Moon 1:14 PM CST (11/22) 1:04 AM CST (11/22)
Length of Visible Light 10h 33m
Length of Day
9h 32m
Waxing Gibbous, 71% of the Moon is Illuminated
Nov 22
Waxing Gibbous
Nov 28
Full
Dec 6
Last Quarter
Dec 13
New
Dec 19
First Quarter

Hourly Weather History & Observations

Time (CST) Temp. Windchill Dew Point Humidity Pressure Visibility Wind Dir Wind Speed Gust Speed Precip Events Conditions
12:52 AM 48.0 °F - 44.1 °F 86% 30.05 in 4.0 mi SSW 15.0 mph 23.0 mph N/A   Clear
1:52 AM 48.0 °F - 44.1 °F 86% 30.04 in 4.0 mi SSW 15.0 mph - N/A   Clear
2:52 AM 46.9 °F - 44.1 °F 90% 30.03 in 3.0 mi SSW 15.0 mph - N/A   Clear
3:52 AM 46.9 °F - 44.1 °F 90% 30.01 in 4.0 mi SSW 13.8 mph - N/A   Clear
4:52 AM 46.0 °F 39.9 °F 43.0 °F 89% 30.00 in 4.0 mi SSW 13.8 mph - N/A   Clear
5:52 AM 46.0 °F 40.6 °F 43.0 °F 89% 29.99 in 4.0 mi SSW 11.5 mph - N/A   Clear
6:52 AM 46.0 °F 39.6 °F 42.1 °F 86% 29.98 in 3.0 mi SSW 15.0 mph - N/A   Clear
7:52 AM 48.0 °F - 43.0 °F 83% 29.96 in 6.0 mi South 17.3 mph - N/A   Haze
8:52 AM 52.0 °F - 44.1 °F 74% 29.94 in 8.0 mi SSW 21.9 mph 27.6 mph N/A   Clear
9:52 AM 55.0 °F - 43.0 °F 64% 29.92 in 6.0 mi South 18.4 mph 27.6 mph N/A   Haze
10:52 AM 57.9 °F - 44.1 °F 60% 29.90 in 7.0 mi South 17.3 mph 25.3 mph N/A   Clear
11:52 AM 61.0 °F - 43.0 °F 52% 29.84 in 9.0 mi South 21.9 mph 26.5 mph N/A   Clear
12:52 PM 63.0 °F - 43.0 °F 48% 29.80 in 10.0 mi SSW 20.7 mph 35.7 mph N/A   Clear
1:52 PM 63.0 °F - 44.1 °F 50% 29.77 in 10.0 mi South 20.7 mph 28.8 mph N/A   Mostly Cloudy
2:52 PM 62.1 °F - 45.0 °F 53% 29.76 in 9.0 mi South 16.1 mph 31.1 mph N/A   Partly Cloudy
3:52 PM 62.1 °F - 45.0 °F 53% 29.76 in 10.0 mi SSW 18.4 mph 32.2 mph N/A   Clear
4:52 PM 55.9 °F - 50.0 °F 80% 29.77 in 9.0 mi SSW 21.9 mph 27.6 mph 0.02 in   Overcast
5:52 PM 55.9 °F - 50.0 °F 80% 29.78 in 9.0 mi SSW 23.0 mph 27.6 mph N/A   Mostly Cloudy
6:52 PM 57.0 °F - 50.0 °F 77% 29.76 in 9.0 mi SSW 23.0 mph 32.2 mph N/A   Overcast
7:52 PM 57.0 °F - 48.9 °F 74% 29.74 in 9.0 mi SSW 24.2 mph 32.2 mph N/A   Mostly Cloudy
8:52 PM 55.9 °F - 48.0 °F 75% 29.73 in 9.0 mi SW 23.0 mph 31.1 mph N/A   Partly Cloudy
9:52 PM 55.9 °F - 48.9 °F 77% 29.73 in 10.0 mi SW 15.0 mph 26.5 mph N/A   Scattered Clouds
10:02 PM 55.4 °F - 48.2 °F 77% 29.73 in 10.0 mi WSW 10.4 mph 23.0 mph N/A   Mostly Cloudy
10:23 PM 51.8 °F - 41.0 °F 67% 29.75 in 10.0 mi WSW 13.8 mph 24.2 mph N/A   Scattered Clouds
10:52 PM 46.0 °F 40.6 °F 36.0 °F 68% 29.78 in 10.0 mi West 11.5 mph 28.8 mph N/A   Clear
11:52 PM 42.1 °F 34.9 °F 34.0 °F 73% 29.81 in 10.0 mi West 13.8 mph 31.1 mph N/A   Clear